Location: Campbell Hill
(37.9301°N, 89.5490°W)
Time: 11:07:36
(UTC+00:00)

Tsikada Rocket - Pass Details

Date: 07 November 2025
Orbit: 958 x 1008 km, 82.9° (Epoch: 07 December)

Event Time Altitude Azimuth Distance (km) Brightness Sun altitude
Rises 23:42:34 0° 359° (N) 3,746 6.9 -10.2°
Reaches altitude 10° 23:45:15 10° 6° (N) 2,792 6.2 -10.7°
Maximum altitude 23:51:22 45° 78° (ENE) 1,350 4.3 -11.9°
Drops below altitude 10° 23:57:24 10° 150° (SSE) 2,762 6.2 -13.1°
Sets 00:00:02 0° 156° (SSE) 3,702 6.9 -13.6°
